Tracking 30918 objects as of 2-Jul-2025
HD Live streaming from Space Station
objects crossing your sky now

ATLAS 5 CENTAUR DEB

Track ATLAS 5 CENTAUR DEB now!


NORAD ID: 44003
Int'l Code: 2014-055BJ
Perigee: 8,868.5 km
Apogee: 35,198.7 km
Inclination: 19.6 °
Period: 794.0 minutes
Semi major axis: 28404 km
RCS: Unknown
Launch date: September 17, 2014
Source: United States (US)
Launch site: AIR FORCE EASTERN TEST RANGE (AFETR)

Note: This is SATELLITE DEBRIS
Your satellite tracking list
STARLINK-30416
Track 1 satellite(s)




NASA's NSSDC Master Catalog

Two Line Element Set (TLE):
1 44003U 14055BJ  25180.69051434 -.00000063  00000-0  00000-0 0  9994
2 44003  19.6289 210.0800 4634842  53.1237 341.1412  1.81351034 45068
Source of the keplerian elements: AFSPC